• en Suisse
  • Liste des pays
  • À 7 jours
  • Température de l'eau
  • Carte satellitaire
  • Carte météo
  • Widgets météo
  • user-avatar
    Se connecter

    Météo par heure à Serdehivka

    Ce jour, 24 Septembre, Lundi

    Heure Température Précipitation Vent Pression Humidité
    00:00 +11°C° 0 mm 3 m/s 744 mmHg 63%
    01:00 +11°C° 0 mm 4 m/s 744 mmHg 61%
    02:00 +11°C° 0 mm 3 m/s 743 mmHg 64%
    03:00 +11°C° 0 mm 4 m/s 742 mmHg 61%
    04:00 +11°C° 0 mm 6 m/s 741 mmHg 57%
    05:00 +11°C° 0 mm 7 m/s 741 mmHg 54%
    06:00 +12°C° 0 mm 8 m/s 740 mmHg 56%
    07:00 +13°C° 0 mm 9 m/s 740 mmHg 57%
    08:00 +14°C° 0 mm 11 m/s 739 mmHg 61%
    09:00 +16°C° 0.2 mm 10 m/s 739 mmHg 63%
    10:00 +17°C° 0.2 mm 10 m/s 738 mmHg 66%
    11:00 +18°C° 0.2 mm 10 m/s 738 mmHg 69%
    12:00 +18°C° 1.3 mm 9 m/s 738 mmHg 74%
    13:00 +17°C° 1.3 mm 9 m/s 737 mmHg 79%
    14:00 +16°C° 0 mm 6 m/s 738 mmHg 84%
    15:00 +14°C° 2.9 mm 7 m/s 738 mmHg 83%
    16:00 +12°C° 2.9 mm 7 m/s 738 mmHg 82%
    17:00 +11°C° 2.9 mm 7 m/s 739 mmHg 81%
    18:00 +10°C° 0.9 mm 7 m/s 739 mmHg 80%
    19:00 +10°C° 0.9 mm 6 m/s 740 mmHg 80%
    20:00 +9°C° 0.9 mm 5 m/s 741 mmHg 79%
    21:00 +9°C° 0 mm 5 m/s 741 mmHg 79%
    22:00 +8°C° 0 mm 5 m/s 741 mmHg 78%
    23:00 +8°C° 0 mm 5 m/s 742 mmHg 78%

    Demain, 25 Septembre, Mardi

    Heure Température Précipitation Vent Pression Humidité
    00:00 +8°C° 0 mm 5 m/s 742 mmHg 79%
    01:00 +7°C° 0 mm 5 m/s 742 mmHg 79%
    02:00 +6°C° 0 mm 5 m/s 742 mmHg 80%
    03:00 +6°C° 0 mm 5 m/s 742 mmHg 81%
    04:00 +6°C° 0 mm 5 m/s 742 mmHg 82%
    05:00 +5°C° 0 mm 5 m/s 742 mmHg 83%
    06:00 +5°C° 0 mm 6 m/s 743 mmHg 80%
    07:00 +6°C° 0 mm 7 m/s 743 mmHg 77%
    08:00 +8°C° 0 mm 7 m/s 744 mmHg 74%
    09:00 +8°C° 0.2 mm 7 m/s 744 mmHg 74%
    10:00 +8°C° 0.2 mm 7 m/s 745 mmHg 75%
    11:00 +8°C° 0.2 mm 7 m/s 745 mmHg 75%
    12:00 +8°C° 0.7 mm 7 m/s 746 mmHg 75%
    13:00 +8°C° 0.7 mm 7 m/s 746 mmHg 76%
    14:00 +7°C° 0.7 mm 8 m/s 746 mmHg 76%
    15:00 +8°C° 0.2 mm 7 m/s 747 mmHg 75%
    16:00 +8°C° 0.2 mm 6 m/s 747 mmHg 73%
    17:00 +7°C° 0.2 mm 6 m/s 748 mmHg 72%
    18:00 +7°C° 0 mm 5 m/s 748 mmHg 75%
    19:00 +6°C° 0 mm 4 m/s 749 mmHg 78%
    20:00 +5°C° 0 mm 3 m/s 749 mmHg 80%
    21:00 +5°C° 0 mm 4 m/s 750 mmHg 79%
    22:00 +5°C° 0 mm 4 m/s 750 mmHg 78%
    23:00 +3°C° 0 mm 5 m/s 751 mmHg 77%

    Après-demain, 26 Septembre, Mercredi

    Heure Température Précipitation Vent Pression Humidité
    00:00 +3°C° 0 mm 5 m/s 751 mmHg 78%
    01:00 +4°C° 0 mm 4 m/s 751 mmHg 79%
    02:00 +4°C° 0 mm 4 m/s 752 mmHg 80%
    03:00 +3°C° 0 mm 4 m/s 752 mmHg 82%
    04:00 +3°C° 0 mm 4 m/s 752 mmHg 84%
    05:00 +3°C° 0 mm 4 m/s 753 mmHg 85%
    06:00 +3°C° 0 mm 5 m/s 753 mmHg 82%
    07:00 +3°C° 0 mm 5 m/s 754 mmHg 79%
    08:00 +5°C° 0 mm 5 m/s 754 mmHg 75%
    09:00 +6°C° 0.1 mm 5 m/s 755 mmHg 68%
    10:00 +7°C° 0.1 mm 6 m/s 755 mmHg 61%
    11:00 +9°C° 0.1 mm 6 m/s 755 mmHg 54%
    12:00 +9°C° 0.1 mm 6 m/s 755 mmHg 50%
    13:00 +9°C° 0.1 mm 5 m/s 755 mmHg 47%
    14:00 +10°C° 0.1 mm 5 m/s 755 mmHg 44%
    15:00 +10°C° 0 mm 4 m/s 755 mmHg 46%
    16:00 +10°C° 0 mm 4 m/s 755 mmHg 48%
    17:00 +9°C° 0 mm 3 m/s 755 mmHg 49%
    18:00 +8°C° 0 mm 3 m/s 755 mmHg 52%
    19:00 +7°C° 0 mm 2 m/s 755 mmHg 55%
    20:00 +6°C° 0 mm 2 m/s 756 mmHg 57%
    21:00 +6°C° 0 mm 2 m/s 756 mmHg 59%
    22:00 +5°C° 0 mm 2 m/s 756 mmHg 61%
    23:00 +5°C° 0 mm 2 m/s 755 mmHg 62%

    27 Septembre, Jeudi

    Heure Température Précipitation Vent Pression Humidité
    00:00 +4°C° 0 mm 3 m/s 755 mmHg 64%
    01:00 +4°C° 0 mm 3 m/s 755 mmHg 66%
    02:00 +4°C° 0 mm 3 m/s 754 mmHg 67%
    03:00 +4°C° 0 mm 4 m/s 754 mmHg 68%
    04:00 +4°C° 0 mm 4 m/s 753 mmHg 68%
    05:00 +4°C° 0 mm 4 m/s 753 mmHg 68%
    06:00 +5°C° 0 mm 5 m/s 753 mmHg 65%
    07:00 +5°C° 0 mm 6 m/s 752 mmHg 61%
    08:00 +6°C° 0 mm 7 m/s 752 mmHg 58%
    09:00 +9°C° 0 mm 7 m/s 752 mmHg 54%
    10:00 +11°C° 0 mm 7 m/s 751 mmHg 50%
    11:00 +14°C° 0 mm 7 m/s 751 mmHg 46%
    12:00 +14°C° 0 mm 7 m/s 751 mmHg 46%
    13:00 +14°C° 0 mm 7 m/s 750 mmHg 46%
    14:00 +15°C° 0 mm 7 m/s 750 mmHg 45%
    15:00 +14°C° 0 mm 6 m/s 749 mmHg 48%
    16:00 +14°C° 0 mm 5 m/s 749 mmHg 51%
    17:00 +13°C° 0 mm 4 m/s 749 mmHg 54%
    18:00 +13°C° 0 mm 4 m/s 749 mmHg 57%
    19:00 +12°C° 0 mm 3 m/s 749 mmHg 60%
    20:00 +12°C° 0 mm 3 m/s 749 mmHg 64%
    21:00 +11°C° 0 mm 3 m/s 749 mmHg 68%
    22:00 +11°C° 0 mm 3 m/s 749 mmHg 72%
    23:00 +11°C° 0 mm 3 m/s 749 mmHg 76%

    28 Septembre, Vendredi

    Heure Température Précipitation Vent Pression Humidité
    00:00 +10°C° 0 mm 3 m/s 749 mmHg 80%
    01:00 +10°C° 0 mm 3 m/s 749 mmHg 84%
    02:00 +10°C° 0 mm 3 m/s 749 mmHg 88%
    03:00 +10°C° 0 mm 2 m/s 748 mmHg 90%
    04:00 +10°C° 0 mm 2 m/s 748 mmHg 91%
    05:00 +9°C° 0 mm 2 m/s 748 mmHg 93%
    06:00 +10°C° 0 mm 2 m/s 748 mmHg 89%
    07:00 +12°C° 0 mm 3 m/s 748 mmHg 86%
    08:00 +13°C° 0 mm 3 m/s 748 mmHg 82%
    09:00 +16°C° 0 mm 3 m/s 748 mmHg 75%
    10:00 +17°C° 0 mm 4 m/s 748 mmHg 68%
    11:00 +19°C° 0 mm 4 m/s 747 mmHg 62%
    12:00 +20°C° 0 mm 4 m/s 747 mmHg 59%
    13:00 +20°C° 0 mm 5 m/s 746 mmHg 57%
    14:00 +21°C° 0 mm 5 m/s 746 mmHg 54%
    15:00 +20°C° 0 mm 4 m/s 746 mmHg 58%
    16:00 +20°C° 0 mm 3 m/s 745 mmHg 61%
    17:00 +19°C° 0 mm 3 m/s 745 mmHg 64%
    18:00 +18°C° 0 mm 3 m/s 745 mmHg 68%
    19:00 +17°C° 0 mm 2 m/s 745 mmHg 72%
    20:00 +16°C° 0 mm 2 m/s 745 mmHg 76%
    21:00 +15°C° 0 mm 2 m/s 745 mmHg 79%
    22:00 +15°C° 0 mm 2 m/s 745 mmHg 81%
    23:00 +14°C° 0 mm 2 m/s 745 mmHg 83%

    29 Septembre, Samedi

    Heure Température Précipitation Vent Pression Humidité
    00:00 +14°C° 0 mm 2 m/s 745 mmHg 86%
    01:00 +14°C° 0 mm 2 m/s 745 mmHg 89%
    02:00 +13°C° 0 mm 2 m/s 745 mmHg 92%
    03:00 +13°C° 0 mm 2 m/s 745 mmHg 93%
    04:00 +13°C° 0 mm 1 m/s 745 mmHg 93%
    05:00 +13°C° 0 mm 1 m/s 745 mmHg 94%
    06:00 +14°C° 0 mm 1 m/s 745 mmHg 91%
    07:00 +14°C° 0 mm 1 m/s 745 mmHg 88%
    08:00 +15°C° 0 mm 1 m/s 745 mmHg 85%
    09:00 +16°C° 0.1 mm 1 m/s 745 mmHg 79%
    10:00 +18°C° 0.1 mm 2 m/s 745 mmHg 73%
    11:00 +19°C° 0.1 mm 2 m/s 744 mmHg 67%
    12:00 +19°C° 0.3 mm 2 m/s 744 mmHg 65%
    13:00 +19°C° 0.3 mm 3 m/s 744 mmHg 64%
    14:00 +19°C° 0.3 mm 3 m/s 744 mmHg 63%
    15:00 +18°C° 0.4 mm 3 m/s 744 mmHg 66%
    16:00 +18°C° 0.4 mm 4 m/s 744 mmHg 70%
    17:00 +17°C° 0.4 mm 4 m/s 744 mmHg 73%
    18:00 +15°C° 0.6 mm 5 m/s 744 mmHg 76%
    19:00 +14°C° 0.6 mm 5 m/s 745 mmHg 78%
    20:00 +11°C° 0.6 mm 6 m/s 745 mmHg 80%
    21:00 +11°C° 0.6 mm 6 m/s 746 mmHg 81%
    22:00 +10°C° 0.6 mm 5 m/s 746 mmHg 83%
    23:00 +10°C° 0.6 mm 5 m/s 746 mmHg 85%
    Voir plus